Date String (YYYY-MM-DD hh:mm:ss) UTC,Instrument flags,Ambient pressure (hPa),Sample flow (lpm),Bypass flow (lpm),Sample temperature (°C),Ambient temperature (°C),ASC tube jacket temperature (°C),LED temperature (°C),Box temperature (°C),Sample RH (%),Span deviation,Mass concentration (μg/m³),Mass concentration (μg/m³),Mass concentration (μg/m³)
DateTimeUTC,F1_M11,P_M11,Q1_M11,Q2_M11,T1_M11,T2_M11,T3_M11,T4_M11,T5_M11,U1_M11,ZSPAN_M11,X0_M11,X2_M11,X1_M11
2022-01-09 05:00:00,,0831.0,5.01,0.00,21.6,22.0,00.0,30.4,23.4,13.2,0000.0,0004.30,0001.03,0000.81
2022-01-09 05:01:00,,0831.0,4.98,0.00,21.6,21.8,00.0,30.4,23.4,13.2,0000.0,0004.55,0001.07,0000.82
2022-01-09 05:02:00,,0831.0,5.00,0.00,21.6,21.7,00.0,30.4,23.4,13.3,0000.0,0004.58,0001.10,0000.83
2022-01-09 05:03:00,,0831.2,5.00,0.00,21.6,21.5,00.0,30.4,23.4,13.3,0000.0,0004.46,0001.07,0000.82
2022-01-09 05:04:00,,0831.2,5.00,0.00,21.6,21.4,00.0,30.5,23.4,13.3,0000.0,0004.31,0001.07,0000.83
2022-01-09 05:05:00,,0831.2,5.00,0.00,21.6,21.4,00.0,30.5,23.4,13.3,0000.0,0003.93,0001.04,0000.82
2022-01-09 05:06:00,,0831.2,5.00,0.00,21.6,21.3,00.0,30.5,23.4,13.3,0000.0,0003.80,0001.02,0000.82
2022-01-09 05:07:00,,0831.2,5.00,0.00,21.6,21.2,00.0,30.5,23.4,13.3,0000.0,0003.95,0001.05,0000.82
2022-01-09 05:08:00,,0831.2,4.99,0.00,21.6,21.2,00.0,30.5,23.4,13.3,0000.0,0004.04,0001.06,0000.81
2022-01-09 05:09:00,,0831.1,5.01,0.00,21.6,21.1,00.0,30.5,23.3,13.3,0000.0,0003.95,0001.05,0000.80
2022-01-09 05:10:00,,0831.1,4.99,0.00,21.6,21.1,00.0,30.5,23.3,13.3,0000.0,0003.73,0001.04,0000.78
2022-01-09 05:11:00,,0831.1,5.02,0.00,21.6,21.1,00.0,30.5,23.3,13.3,0000.0,0002.76,0001.04,0000.77
2022-01-09 05:12:00,,0831.2,5.01,0.00,21.6,21.1,00.0,30.5,23.3,13.3,0000.0,0001.78,0000.99,0000.75
2022-01-09 05:13:00,,0831.2,4.99,0.00,21.6,21.1,00.0,30.5,23.3,13.3,0000.0,0002.15,0000.95,0000.73
2022-01-09 05:14:00,,0831.2,5.00,0.00,21.6,21.1,00.0,30.5,23.3,13.3,0000.0,0003.11,0000.97,0000.75
2022-01-09 05:15:00,,0831.2,5.00,0.00,21.6,21.0,00.0,30.6,23.3,13.3,0000.0,0003.15,0000.99,0000.76
2022-01-09 05:16:00,,0831.2,5.00,0.00,21.6,21.0,00.0,30.6,23.3,13.2,0000.0,0003.17,0001.00,0000.77
2022-01-09 05:17:00,,0831.2,5.00,0.00,21.6,21.0,00.0,30.6,23.3,13.2,0000.0,0003.20,0001.03,0000.78
2022-01-09 05:18:00,,0831.2,4.99,0.00,21.6,21.0,00.0,30.6,23.3,13.2,0000.0,0003.12,0001.02,0000.80
2022-01-09 05:19:00,,0831.2,5.01,0.00,21.6,21.0,00.0,30.6,23.3,13.2,0000.0,0003.05,0001.01,0000.81
2022-01-09 05:20:00,,0831.2,5.00,0.00,21.6,21.0,00.0,30.6,23.3,13.2,0000.0,0003.09,0001.02,0000.82
2022-01-09 05:21:00,,0831.4,5.00,0.00,21.6,21.0,00.0,30.6,23.3,13.3,0000.0,0003.09,0001.03,0000.82
2022-01-09 05:22:00,,0831.4,5.00,0.00,21.6,21.0,00.0,30.6,23.3,13.3,0000.0,0003.00,0001.00,0000.82
2022-01-09 05:23:00,,0831.4,4.99,0.00,21.6,21.0,00.0,30.6,23.3,13.3,0000.0,0003.04,0001.03,0000.83
2022-01-09 05:24:00,,0831.4,5.01,0.00,21.6,20.9,00.0,30.6,23.3,13.3,0000.0,0002.69,0001.08,0000.85
2022-01-09 05:25:00,,0831.4,4.99,0.00,21.6,20.9,00.0,30.6,23.3,13.3,0000.0,0001.78,0001.07,0000.83
2022-01-09 05:26:00,,0831.3,4.99,0.00,21.6,20.9,00.0,30.6,23.3,13.2,0000.0,0001.77,0001.06,0000.82
2022-01-09 05:27:00,,0831.3,5.00,0.00,21.6,21.0,00.0,30.6,23.3,13.2,0000.0,0001.81,0001.07,0000.83
2022-01-09 05:28:00,,0831.4,5.00,0.00,21.6,21.0,00.0,30.6,23.3,13.2,0000.0,0001.80,0001.06,0000.82
2022-01-09 05:29:00,,0831.3,5.00,0.00,21.6,21.0,00.0,30.6,23.3,13.3,0000.0,0001.83,0001.07,0000.82
2022-01-09 05:30:00,,0831.4,5.01,0.00,21.6,21.0,00.0,30.6,23.3,13.2,0000.0,0001.80,0001.07,0000.82
2022-01-09 05:31:00,,0831.4,4.99,0.00,21.6,21.6,00.0,30.6,23.4,13.2,0000.0,0001.72,0001.05,0000.82
2022-01-09 05:32:00,,0831.4,4.99,0.00,21.8,22.4,00.0,30.7,23.7,13.1,0000.0,0001.64,0001.02,0000.82
2022-01-09 05:33:00,,0831.4,5.00,0.00,21.9,22.7,00.0,30.7,23.9,13.0,0000.0,0001.78,0001.09,0000.84
2022-01-09 05:34:00,,0831.4,5.01,0.00,22.0,22.5,00.0,30.7,23.9,12.9,0000.0,0001.94,0001.09,0000.84
2022-01-09 05:35:00,,0831.3,4.99,0.00,22.0,22.3,00.0,30.8,23.9,12.9,0000.0,0002.02,0001.06,0000.84
2022-01-09 05:36:00,,0831.4,5.01,0.00,22.0,22.1,00.0,30.8,23.9,13.0,0000.0,0002.00,0001.06,0000.84
2022-01-09 05:37:00,,0831.5,5.00,0.00,22.0,22.0,00.0,30.8,23.8,13.0,0000.0,0002.00,0001.06,0000.85
2022-01-09 05:38:00,,0831.5,4.98,0.00,22.0,21.9,00.0,30.8,23.8,13.0,0000.0,0001.98,0001.04,0000.85
2022-01-09 05:39:00,,0831.5,5.01,0.00,22.0,21.7,00.0,30.8,23.8,13.0,0000.0,0002.08,0001.05,0000.85
2022-01-09 05:40:00,,0831.6,4.99,0.00,22.0,21.7,00.0,30.9,23.8,13.0,0000.0,0002.19,0001.06,0000.85
2022-01-09 05:41:00,,0831.5,5.00,0.00,22.0,21.6,00.0,30.9,23.8,13.0,0000.0,0002.12,0001.04,0000.84
2022-01-09 05:42:00,,0831.5,4.99,0.00,22.0,21.6,00.0,30.9,23.7,13.0,0000.0,0002.15,0001.05,0000.84
2022-01-09 05:43:00,,0831.6,5.01,0.00,22.0,21.5,00.0,30.9,23.7,13.0,0000.0,0002.33,0001.06,0000.83
2022-01-09 05:44:00,,0831.6,5.00,0.00,22.0,21.5,00.0,30.9,23.7,13.0,0000.0,0002.51,0001.01,0000.81
2022-01-09 05:45:00,,0831.7,5.01,0.00,21.9,21.4,00.0,30.9,23.7,13.0,0000.0,0002.40,0001.01,0000.80
2022-01-09 05:46:00,,0831.6,5.01,0.00,21.9,21.4,00.0,30.9,23.7,13.0,0000.0,0002.23,0001.02,0000.81
2022-01-09 05:47:00,,0831.6,4.99,0.00,21.9,21.4,00.0,30.9,23.7,13.0,0000.0,0002.26,0001.02,0000.80
2022-01-09 05:48:00,,0831.6,5.01,0.00,21.9,21.3,00.0,30.9,23.7,13.0,0000.0,0002.25,0001.01,0000.78
2022-01-09 05:49:00,,0831.5,4.99,0.00,21.9,21.3,00.0,30.9,23.7,13.1,0000.0,0002.29,0001.01,0000.77
2022-01-09 05:50:00,,0831.6,5.01,0.00,21.9,21.3,00.0,30.9,23.6,13.1,0000.0,0002.51,0001.01,0000.77
2022-01-09 05:51:00,,0831.6,4.98,0.00,21.9,21.3,00.0,30.9,23.6,13.1,0000.0,0002.33,0000.99,0000.76
2022-01-09 05:52:00,,0831.6,5.01,0.00,21.9,21.2,00.0,30.9,23.6,13.1,0000.0,0002.28,0000.96,0000.75
2022-01-09 05:53:00,,0831.6,5.00,0.00,21.9,21.2,00.0,30.9,23.6,13.1,0000.0,0002.30,0000.97,0000.75
2022-01-09 05:54:00,,0831.6,4.99,0.00,21.9,21.2,00.0,30.9,23.6,13.1,0000.0,0002.24,0000.98,0000.76
2022-01-09 05:55:00,,0831.6,5.00,0.00,21.8,21.2,00.0,30.9,23.6,13.1,0000.0,0001.92,0000.99,0000.77
2022-01-09 05:56:00,,0831.7,4.99,0.00,21.8,21.2,00.0,30.9,23.5,13.1,0000.0,0001.93,0000.99,0000.77
2022-01-09 05:57:00,,0831.7,5.00,0.00,21.8,21.2,00.0,30.9,23.5,13.1,0000.0,0001.88,0000.99,0000.78
2022-01-09 05:58:00,,0831.7,5.01,0.00,21.8,21.2,00.0,30.9,23.5,13.1,0000.0,0001.94,0001.00,0000.79
2022-01-09 05:59:00,,0831.7,4.99,0.00,21.8,21.2,00.0,30.9,23.5,13.1,0000.0,0002.12,0001.07,0000.80
